Eugene, Missouri, United States (65032)
Lat: 38.35N, Lon: 92.4W
Wx Zone: MOZ048
Local Info
Past Weather Observations for Today

NOTE: This archive is for the closest National Weather Service station to Eugene. Information may differ from the station used for current weather conditions.

Click here for Long-term Archive

Time Weather Temperature Dewpoint Humidity Pressure Winds Precip Visibility
23:35
Overcast
37°F / 3°C 34°F / 1°C 87% 30.21 in
(1023 mb)
SSE 4.6 mph
(SSE 7 kph)
- 10SM
23:15
Overcast
37°F / 3°C 34°F / 1°C 87% 30.21 in
(1023 mb)
SE 3.5 mph
(SE 6 kph)
- 10SM
22:55
Overcast
37°F / 3°C 34°F / 1°C 87% 30.24 in
(1024 mb)
SSE 3.5 mph
(SSE 6 kph)
- 10SM
22:35
Overcast
37°F / 3°C 34°F / 1°C 87% 30.24 in
(1024 mb)
SE 3.5 mph
(SE 6 kph)
- 10SM
22:15
Overcast
37°F / 3°C 34°F / 1°C 87% 30.24 in
(1024 mb)
SE 3.5 mph
(SE 6 kph)
- 10SM
21:55
Overcast
37°F / 3°C 34°F / 1°C 87% 30.21 in
(1023 mb)
SE 3.5 mph
(SE 6 kph)
- 10SM
21:35
Overcast
37°F / 3°C 34°F / 1°C 87% 30.21 in
(1023 mb)
SE 3.5 mph
(SE 6 kph)
- 10SM
21:15
Overcast
37°F / 3°C 34°F / 1°C 87% 30.21 in
(1023 mb)
SE 3.5 mph
(SE 6 kph)
- 10SM
20:55
Overcast
37°F / 3°C 34°F / 1°C 87% 30.21 in
(1023 mb)
Calm - 9SM
20:35
Overcast
37°F / 3°C 34°F / 1°C 87% 30.21 in
(1023 mb)
Calm - 10SM
20:15
Overcast
37°F / 3°C 34°F / 1°C 87% 30.21 in
(1023 mb)
Calm - 10SM
19:55
Overcast
37°F / 3°C 34°F / 1°C 87% 30.21 in
(1023 mb)
Calm - 10SM
19:35
Overcast
37°F / 3°C 34°F / 1°C 87% 30.21 in
(1023 mb)
Calm - 10SM
19:15
Overcast
37°F / 3°C 34°F / 1°C 87% 30.21 in
(1023 mb)
Calm - 10SM
18:55
Overcast
37°F / 3°C 34°F / 1°C 87% 30.21 in
(1023 mb)
SE 3.5 mph
(SE 6 kph)
- 10SM
18:35
Overcast
37°F / 3°C 34°F / 1°C 87% 30.21 in
(1023 mb)
SE 3.5 mph
(SE 6 kph)
- 10SM
18:15
Overcast
37°F / 3°C 34°F / 1°C 87% 30.21 in
(1023 mb)
SE 3.5 mph
(SE 6 kph)
- 10SM
17:55
Overcast
37°F / 3°C 32°F / 0°C 81% 30.21 in
(1023 mb)
Calm - 10SM
17:35
Overcast
37°F / 3°C 32°F / 0°C 81% 30.21 in
(1023 mb)
ENE 3.5 mph
(ENE 6 kph)
- 10SM
17:15
Overcast
37°F / 3°C 34°F / 1°C 87% 30.21 in
(1023 mb)
ENE 3.5 mph
(ENE 6 kph)
- 10SM
16:55
Overcast
37°F / 3°C 34°F / 1°C 87% 30.21 in
(1023 mb)
E 3.5 mph
(E 6 kph)
- 10SM
16:35
Overcast
37°F / 3°C 34°F / 1°C 87% 30.21 in
(1023 mb)
Calm - 10SM
16:15
Overcast
37°F / 3°C 32°F / 0°C 81% 30.21 in
(1023 mb)
E 4.6 mph
(E 7 kph)
- 10SM
15:55
Overcast
37°F / 3°C 32°F / 0°C 81% 30.21 in
(1023 mb)
E 5.8 mph
(E 9 kph)
- 10SM
15:35
Overcast
37°F / 3°C 32°F / 0°C 81% 30.21 in
(1023 mb)
E 4.6 mph
(E 7 kph)
- 10SM
15:15
Overcast
37°F / 3°C 32°F / 0°C 81% 30.21 in
(1023 mb)
E 3.5 mph
(E 6 kph)
- 10SM
14:55
Overcast
37°F / 3°C 32°F / 0°C 81% 30.21 in
(1023 mb)
E 3.5 mph
(E 6 kph)
- 10SM
14:35
Overcast
37°F / 3°C 32°F / 0°C 81% 30.21 in
(1023 mb)
E 3.5 mph
(E 6 kph)
- 10SM
14:15
Overcast
37°F / 3°C 32°F / 0°C 81% 30.24 in
(1024 mb)
ENE 3.5 mph
(ENE 6 kph)
- 10SM
13:55
Overcast
37°F / 3°C 32°F / 0°C 81% 30.24 in
(1024 mb)
E 3.5 mph
(E 6 kph)
- 10SM
13:35
Overcast
37°F / 3°C 32°F / 0°C 81% 30.24 in
(1024 mb)
E 3.5 mph
(E 6 kph)
- 10SM
13:15
Overcast
37°F / 3°C 32°F / 0°C 81% 30.24 in
(1024 mb)
SE 3.5 mph
(SE 6 kph)
- 10SM
12:55
Overcast
37°F / 3°C 32°F / 0°C 81% 30.24 in
(1024 mb)
E 4.6 mph
(E 7 kph)
- 10SM
12:35
Overcast
37°F / 3°C 30°F / -1°C 75% 30.27 in
(1025 mb)
ESE 3.5 mph
(ESE 6 kph)
- 10SM
12:15
Overcast
37°F / 3°C 32°F / 0°C 81% 30.27 in
(1025 mb)
Calm - 10SM
11:55
Overcast
37°F / 3°C 32°F / 0°C 81% 30.27 in
(1025 mb)
Calm - 10SM
11:35
Overcast
37°F / 3°C 30°F / -1°C 75% 30.27 in
(1025 mb)
SE 4.6 mph
(SE 7 kph)
- 10SM
11:15
Overcast
37°F / 3°C 30°F / -1°C 75% 30.27 in
(1025 mb)
SE 4.6 mph
(SE 7 kph)
- 10SM
10:55
Overcast
36°F / 2°C 32°F / 0°C 87% 30.27 in
(1025 mb)
E 4.6 mph
(E 7 kph)
- 10SM
10:35
Overcast
36°F / 2°C 32°F / 0°C 87% 30.27 in
(1025 mb)
SE 4.6 mph
(SE 7 kph)
- 10SM
10:15
Overcast
36°F / 2°C 32°F / 0°C 87% 30.27 in
(1025 mb)
SE 3.5 mph
(SE 6 kph)
- 10SM
09:55
Overcast
36°F / 2°C 32°F / 0°C 87% 30.27 in
(1025 mb)
SE 4.6 mph
(SE 7 kph)
- 10SM
09:35
Overcast
36°F / 2°C 34°F / 1°C 93% 30.27 in
(1025 mb)
SE 3.5 mph
(SE 6 kph)
- 7SM
09:15
Overcast
36°F / 2°C 32°F / 0°C 87% 30.27 in
(1025 mb)
Calm - 4SM
08:55
Overcast
34°F / 1°C 32°F / 0°C 93% 30.27 in
(1025 mb)
Calm - 3SM
08:35
Overcast
34°F / 1°C 32°F / 0°C 93% 30.27 in
(1025 mb)
E 4.6 mph
(E 7 kph)
- 1 1/2SM
08:15
Overcast
34°F / 1°C 32°F / 0°C 93% 30.27 in
(1025 mb)
Calm - 1/2SM
07:55
Overcast
34°F / 1°C 32°F / 0°C 93% 30.24 in
(1024 mb)
ESE 4.6 mph
(ESE 7 kph)
- 3/4SM
07:35
Overcast
34°F / 1°C 32°F / 0°C 93% 30.27 in
(1025 mb)
ESE 4.6 mph
(ESE 7 kph)
- 1SM
07:15
Overcast
34°F / 1°C 32°F / 0°C 93% 30.24 in
(1024 mb)
E 5.8 mph
(E 9 kph)
- 1SM
06:55
Overcast
34°F / 1°C 32°F / 0°C 93% 30.24 in
(1024 mb)
ENE 4.6 mph
(ENE 7 kph)
- 3/4SM
06:35
Overcast
34°F / 1°C 32°F / 0°C 93% 30.24 in
(1024 mb)
ENE 5.8 mph
(ENE 9 kph)
- 1 3/4SM
06:15
Overcast
34°F / 1°C 32°F / 0°C 93% 30.24 in
(1024 mb)
E 4.6 mph
(E 7 kph)
- 5SM
05:55
Overcast
34°F / 1°C 32°F / 0°C 93% 30.24 in
(1024 mb)
E 4.6 mph
(E 7 kph)
- 5SM
05:35
Overcast
34°F / 1°C 32°F / 0°C 93% 30.24 in
(1024 mb)
ENE 5.8 mph
(ENE 9 kph)
- 3SM
05:15
Overcast
34°F / 1°C 32°F / 0°C 93% 30.21 in
(1023 mb)
NE 5.8 mph
(NE 9 kph)
- 5SM
04:55
Overcast
34°F / 1°C 32°F / 0°C 93% 30.21 in
(1023 mb)
ENE 4.6 mph
(ENE 7 kph)
- 5SM
04:35
Overcast
34°F / 1°C 32°F / 0°C 93% 30.21 in
(1023 mb)
ENE 5.8 mph
(ENE 9 kph)
- 4SM
04:15
Overcast
34°F / 1°C 32°F / 0°C 93% 30.24 in
(1024 mb)
ENE 4.6 mph
(ENE 7 kph)
- 4SM
03:55
Overcast
34°F / 1°C 32°F / 0°C 93% 30.24 in
(1024 mb)
NE 3.5 mph
(NE 6 kph)
- 4SM
03:35
Overcast
36°F / 2°C 32°F / 0°C 87% 30.24 in
(1024 mb)
NE 4.6 mph
(NE 7 kph)
- 4SM
03:15
Overcast
36°F / 2°C 32°F / 0°C 87% 30.24 in
(1024 mb)
NE 3.5 mph
(NE 6 kph)
- 3SM
02:55
Overcast
34°F / 1°C 32°F / 0°C 93% 30.24 in
(1024 mb)
Calm - 4SM
02:35
Overcast
34°F / 1°C 32°F / 0°C 93% 30.24 in
(1024 mb)
NE 3.5 mph
(NE 6 kph)
- 3SM
02:15
Overcast
34°F / 1°C 32°F / 0°C 93% 30.24 in
(1024 mb)
NE 3.5 mph
(NE 6 kph)
- 3SM
01:55
Overcast
34°F / 1°C 32°F / 0°C 93% 30.24 in
(1024 mb)
ENE 3.5 mph
(ENE 6 kph)
- 3/4SM
01:35
Overcast
34°F / 1°C 32°F / 0°C 93% 30.24 in
(1024 mb)
Calm - 1SM
01:15
Overcast
34°F / 1°C 32°F / 0°C 93% 30.24 in
(1024 mb)
NE 3.5 mph
(NE 6 kph)
- 1SM
00:55
Overcast
36°F / 2°C 32°F / 0°C 87% 30.24 in
(1024 mb)
NE 3.5 mph
(NE 6 kph)
- 3/4SM
00:35
Overcast
34°F / 1°C 32°F / 0°C 93% 30.24 in
(1024 mb)
ENE 3.5 mph
(ENE 6 kph)
- 1/2SM
00:15
Overcast
34°F / 1°C 32°F / 0°C 93% 30.24 in
(1024 mb)
ENE 3.5 mph
(ENE 6 kph)
- 1SM
Time Weather Temperature Dewpoint Humidity Pressure Winds Precip Visibility


Weather for websites

WeatherForYou.com, LLC is not responsible for any damages or problems caused by this service. Current weather conditions are obtained from the closest station including government and personal stations which may have varying degrees of accuracy. Weather forecasts are derived from the NOAA NDFD. Like all things, this site belongs to Jesus Christ... He just trusts me to maintain it. If you have any questions or comments email webmaster@weatherforyou.com

Copyright © 2014, WeatherForYou.com LLC. All rights reserved.